GW3800 Weather Reports


Display with metric or nautical units.
time (UTC)temp
F
wind
direction
speed
MPH
gust
MPH
rain 1hr
in
rain 24hr
in
rain mn
in
humidity
%
barometer
mb
20260503204921 56 315 5.0 6.0 0.00 0.00 0.00 27 1008.5
20260503204419 55 243 1.0 7.0 0.00 0.00 0.00 31 1008.6
20260503203916 56 280 2.0 4.0 0.00 0.00 0.00 29 1008.6
20260503203413 56 267 3.0 7.0 0.00 0.00 0.00 27 1008.5
20260503202910 56 258 2.0 4.0 0.00 0.00 0.00 26 1008.6
20260503202408 55 247 1.0 3.0 0.00 0.00 0.00 29 1008.7
20260503201906 55 253 1.0 8.0 0.00 0.00 0.00 28 1008.8
20260503201403 55 25 1.0 3.0 0.00 0.00 0.00 28 1008.6
20260503200900 54 187 3.0 7.0 0.00 0.00 0.00 29 1008.4
20260503200356 55 291 3.0 6.0 0.00 0.00 0.00 29 1008.6
20260503195853 56 308 4.0 6.0 0.00 0.00 0.00 29 1008.7
20260503195349 55 292 3.0 7.0 0.00 0.00 0.00 29 1008.7
20260503194847 56 255 2.0 4.0 0.00 0.00 0.00 32 1008.9
20260503194343 55 289 1.0 1.0 0.00 0.00 0.00 38 1008.9
20260503193839 55 293 1.0 4.0 0.00 0.00 0.00 31 1008.8
20260503193335 56 209 4.0 11.0 0.00 0.00 0.00 31 1008.8
20260503192831 55 252 1.0 3.0 0.00 0.00 0.00 32 1009.1
20260503192327 56 302 3.0 6.0 0.00 0.00 0.00 31 1009.3
20260503191823 54 352 2.0 7.0 0.00 0.00 0.00 32 1009.3
20260503191321 55 256 4.0 7.0 0.00 0.00 0.00 30 1009.3
20260503190817 56 272 1.0 3.0 0.00 0.00 0.00 31 1009.5
20260503190314 55 256 1.0 3.0 0.00 0.00 0.00 43 1009.4
20260503185811 54 51 4.0 6.0 0.00 0.00 0.00 32 1009.5
20260503185308 53 300 3.0 7.0 0.00 0.00 0.00 33 1009.6
20260503184807 53 165 5.0 7.0 0.00 0.00 0.00 33 1009.5
20260503184304 53 285 1.0 4.0 0.00 0.00 0.00 35 1009.8
20260503183759 52 272 1.0 3.0 0.00 0.00 0.00 35 1009.9
20260503183257 52 267 1.0 6.0 0.00 0.00 0.00 38 1010.1
20260503182754 53 9 4.0 6.0 0.00 0.00 0.00 34 1009.9
20260503182253 51 163 2.0 3.0 0.00 0.00 0.00 39 1009.8
20260503181750 52 288 0.0 1.0 0.00 0.00 0.00 37 1009.8
20260503181247 51 301 3.0 6.0 0.00 0.00 0.00 35 1010.0
20260503180743 51 351 2.0 6.0 0.00 0.00 0.00 38 1009.9
20260503180242 50 173 1.0 6.0 0.00 0.00 0.00 38 1009.8
20260503175738 49 332 1.0 3.0 0.00 0.00 0.00 43 1010.1
20260503175236 49 345 1.0 7.0 0.00 0.00 0.00 41 1010.1
20260503174732 50 284 5.0 8.0 0.00 0.00 0.00 36 1010.0
20260503174230 49 20 2.0 2.0 0.00 0.00 0.00 39 1010.1
20260503173730 48 264 2.0 3.0 0.00 0.00 0.00 38 1010.2
20260503173226 48 292 1.0 2.0 0.00 0.00 0.00 40 1010.3
20260503172723 48 253 0.0 7.0 0.00 0.00 0.00 41 1010.3
20260503172220 48 143 5.0 7.0 0.00 0.00 0.00 40 1010.3
20260503171717 48 266 1.0 4.0 0.00 0.00 0.00 42 1010.5
20260503171214 49 269 3.0 4.0 0.00 0.00 0.00 39 1010.4
20260503170711 48 230 1.0 3.0 0.00 0.00 0.00 43 1010.4
20260503170208 48 302 2.0 4.0 0.00 0.00 0.00 40 1010.5
20260503160130 47 270 1.0 4.0 0.00 0.00 0.00 40 1010.6
20260503150559 46 333 2.0 3.0 0.00 0.00 0.00 38 1010.8
20260503130949 45 225 2.0 4.0 0.00 0.00 0.00 52 1011.2
20260503130447 45 232 2.0 3.0 0.00 0.00 0.00 57 1011.4
20260503110343 37 226 0.0 0.0 0.00 0.00 0.00 84 1011.1
20260503090235 35 226 0.0 0.0 0.00 0.00 0.00 83 1010.9
20260503081202 35 226 0.0 0.0 0.00 0.00 0.00 81 1011.0
20260503080657 35 226 0.0 0.0 0.00 0.00 0.00 81 1010.9
20260503080155 35 226 0.0 0.0 0.00 0.00 0.00 81 1011.0
20260503072631 35 226 0.0 0.0 0.00 0.00 0.00 79 1011.1
20260503072128 35 226 0.0 0.0 0.00 0.00 0.00 78 1011.1
20260503071625 35 226 0.0 0.0 0.00 0.00 0.00 79 1011.0
20260503071122 35 226 0.0 0.0 0.00 0.00 0.00 81 1011.0
20260503070619 34 226 0.0 0.0 0.00 0.00 0.00 80 1011.2
20260503070117 34 226 0.0 0.0 0.00 0.00 0.00 80 1011.1
20260503055037 34 226 0.0 0.0 0.00 0.00 0.00 79 1011.7
20260503054533 34 226 0.0 0.0 0.00 0.00 0.00 79 1011.9
20260503054031 34 226 0.0 0.0 0.00 0.00 0.00 77 1011.9
20260503053529 35 226 0.0 0.0 0.00 0.00 0.00 76 1012.0
20260503053026 35 226 0.0 0.0 0.00 0.00 0.00 75 1012.0
20260503052523 36 226 0.0 0.0 0.00 0.00 0.00 74 1011.9
20260503052019 36 226 0.0 0.0 0.00 0.00 0.00 73 1012.0
20260503051515 37 226 0.0 0.0 0.00 0.00 0.00 72 1012.0
20260503051013 37 226 0.0 0.0 0.00 0.00 0.00 71 1012.2
20260503050508 37 226 0.0 0.0 0.00 0.00 0.00 71 1012.0
20260503050006 37 226 1.0 1.0 0.00 0.00 0.00 71 1012.3
20260503045503 37 226 0.0 1.0 0.00 0.00 0.00 72 1012.1
20260503045000 37 226 0.0 0.0 0.00 0.00 0.00 72 1012.2
20260503044456 36 225 1.0 1.0 0.00 0.00 0.00 72 1012.2
20260503043954 36 228 0.0 0.0 0.00 0.00 0.00 72 1012.2
20260503043450 36 228 0.0 0.0 0.00 0.00 0.00 72 1012.2
20260503042947 36 228 0.0 1.0 0.00 0.00 0.00 71 1012.3
20260503042443 36 228 0.0 0.0 0.00 0.00 0.00 72 1012.2
20260503041940 36 220 2.0 2.0 0.00 0.00 0.00 71 1012.6
20260503041437 36 231 0.0 0.0 0.00 0.00 0.00 70 1012.3
20260503040934 36 230 0.0 1.0 0.00 0.00 0.00 70 1012.4
20260503040431 37 232 0.0 1.0 0.00 0.00 0.00 69 1012.4
20260503035929 37 232 1.0 1.0 0.00 0.00 0.00 69 1012.4
20260503035425 37 232 0.0 0.0 0.00 0.00 0.00 68 1012.5
20260503034923 37 231 1.0 1.0 0.00 0.00 0.00 67 1012.5
20260503034421 38 241 0.0 0.0 0.00 0.00 0.00 67 1012.5
20260503033917 38 232 1.0 1.0 0.00 0.00 0.00 65 1012.6
20260503033415 39 233 0.0 0.0 0.00 0.00 0.00 65 1012.7
20260503032913 39 233 0.0 1.0 0.00 0.00 0.00 65 1012.5
20260503032411 39 233 0.0 1.0 0.00 0.00 0.00 64 1012.5
20260503031908 39 233 1.0 1.0 0.00 0.00 0.00 64 1012.6
20260503031406 39 233 0.0 1.0 0.00 0.00 0.00 64 1012.4
20260503030902 39 234 0.0 0.0 0.00 0.00 0.00 65 1012.6
20260503030359 39 233 1.0 1.0 0.00 0.00 0.00 65 1012.6
20260503025855 38 235 0.0 0.0 0.00 0.00 0.00 66 1012.4
20260503025353 38 235 1.0 1.0 0.00 0.00 0.00 68 1012.4
20260503024850 38 235 0.0 0.0 0.00 0.00 0.00 71 1012.7
20260503024346 38 235 0.0 0.0 0.00 0.00 0.00 70 1012.7
20260503023843 38 235 1.0 1.0 0.00 0.00 0.00 70 1012.5
20260503023341 37 235 0.0 0.0 0.00 0.00 0.00 70 1012.7
20260503022838 37 234 0.0 0.0 0.00 0.00 0.00 70 1012.8
20260503022337 36 235 0.0 0.0 0.00 0.00 0.00 70 1012.8
20260503021834 36 234 0.0 0.0 0.00 0.00 0.00 78 1012.7
20260503021330 36 234 0.0 0.0 0.00 0.00 0.00 77 1012.6
20260503020828 36 234 0.0 0.0 0.00 0.00 0.00 75 1012.8
20260503020326 35 234 0.0 0.0 0.00 0.00 0.00 75 1012.9
20260503015822 35 234 0.0 0.0 0.00 0.00 0.00 72 1012.9
20260503015319 36 234 0.0 0.0 0.00 0.00 0.00 73 1012.9
20260503014815 36 234 0.0 0.0 0.00 0.00 0.00 74 1012.9
20260503014313 37 234 0.0 0.0 0.00 0.00 0.00 71 1012.7
20260503013810 37 234 0.0 0.0 0.00 0.00 0.00 69 1012.6
20260503013307 37 234 0.0 0.0 0.00 0.00 0.00 70 1012.8
20260503012804 37 234 0.0 0.0 0.00 0.00 0.00 69 1012.8
20260503012301 37 234 0.0 0.0 0.00 0.00 0.00 67 1012.7
20260503011758 37 234 0.0 0.0 0.00 0.00 0.00 66 1012.9
20260503011255 38 234 0.0 0.0 0.00 0.00 0.00 65 1012.8
20260503010751 39 234 0.0 0.0 0.00 0.00 0.00 64 1012.6
20260503010249 39 234 0.0 0.0 0.00 0.00 0.00 63 1012.8
20260503005746 39 234 0.0 0.0 0.00 0.00 0.00 63 1012.6
20260503005243 40 234 0.0 0.0 0.00 0.00 0.00 60 1012.6
20260503004739 40 234 0.0 0.0 0.00 0.00 0.00 60 1012.5
20260503004237 40 235 0.0 0.0 0.00 0.00 0.00 59 1012.6
20260503003734 41 235 0.0 0.0 0.00 0.00 0.00 59 1012.5
20260503003231 41 234 0.0 2.0 0.00 0.00 0.00 59 1012.5
20260503002728 41 269 0.0 1.0 0.00 0.00 0.00 58 1012.5
20260503002225 41 269 0.0 0.0 0.00 0.00 0.00 57 1012.3
20260503001720 42 269 1.0 1.0 0.00 0.00 0.00 56 1012.3
20260503001217 42 269 2.0 1.0 0.00 0.00 0.00 55 1012.3
20260503000715 42 265 0.0 2.0 0.00 0.00 0.00 55 1012.2
20260503000212 43 327 0.0 1.0 0.00 0.00 0.00 55 1012.4
20260502235709 43 329 0.0 0.0 0.00 0.00 0.00 55 1012.3
20260502235207 43 259 1.0 1.0 0.00 0.00 0.00 54 1012.6
20260502234703 43 325 2.0 3.0 0.00 0.00 0.00 53 1012.2
20260502234200 44 295 0.0 2.0 0.00 0.00 0.00 52 1012.3
20260502233656 44 291 2.0 3.0 0.00 0.00 0.00 51 1012.4
20260502233153 44 228 0.0 2.0 0.00 0.00 0.00 50 1012.0
20260502232649 44 225 1.0 3.0 0.00 0.00 0.00 49 1012.2
20260502232147 45 257 3.0 3.0 0.00 0.00 0.00 49 1012.0
20260502231643 45 247 0.0 2.0 0.00 0.00 0.00 50 1011.9
20260502231141 46 10 1.0 2.0 0.00 0.00 0.00 48 1011.9
20260502230639 46 289 1.0 2.0 0.00 0.00 0.00 48 1012.2
20260502230137 46 249 2.0 3.0 0.00 0.00 0.00 47 1012.1
20260502225632 45 284 1.0 1.0 0.00 0.00 0.00 49 1012.1
20260502225130 46 239 0.0 3.0 0.00 0.00 0.00 47 1012.1
20260502224626 46 289 1.0 3.0 0.00 0.00 0.00 46 1011.7
20260502224123 46 250 5.0 8.0 0.00 0.00 0.00 45 1012.1
20260502223621 46 276 3.0 3.0 0.00 0.00 0.00 46 1011.7
20260502223119 47 286 1.0 3.0 0.00 0.00 0.00 46 1012.1
20260502222616 47 235 1.0 2.0 0.00 0.00 0.00 46 1012.0
20260502222112 47 294 0.0 1.0 0.00 0.00 0.00 48 1011.7
20260502221608 47 334 1.0 7.0 0.00 0.00 0.00 44 1011.6
20260502221106 47 281 3.0 6.0 0.00 0.00 0.00 44 1011.7
20260502220601 47 43 2.0 2.0 0.00 0.00 0.00 45 1012.0
20260502220058 47 286 2.0 3.0 0.00 0.00 0.00 45 1012.0
20260502215555 47 273 1.0 2.0 0.00 0.00 0.00 45 1011.9
20260502215052 47 297 1.0 2.0 0.00 0.00 0.00 44 1011.7
20260502214549 48 248 0.0 3.0 0.00 0.00 0.00 44 1011.7
20260502214047 49 132 3.0 7.0 0.00 0.00 0.00 42 1011.7
20260502213543 49 260 0.0 2.0 0.00 0.00 0.00 43 1011.6
20260502213041 49 288 0.0 3.0 0.00 0.00 0.00 43 1011.5
20260502212540 49 155 2.0 3.0 0.00 0.00 0.00 41 1011.6
20260502212037 48 275 1.0 3.0 0.00 0.00 0.00 42 1011.6
20260502211532 49 241 2.0 3.0 0.00 0.00 0.00 41 1011.6
20260502211030 50 273 1.0 6.0 0.00 0.00 0.00 41 1011.6
20260502210526 49 307 3.0 4.0 0.00 0.00 0.00 39 1011.5
20260502210024 48 264 2.0 3.0 0.00 0.00 0.00 41 1011.4
20260502205520 50 273 4.0 7.0 0.00 0.00 0.00 38 1011.6
20260502205017 50 301 2.0 6.0 0.00 0.00 0.00 38 1011.5